Location: Asheville, NC
(35.6000°N, 82.5500°W)
Time: 13:54:15
(UTC-04:00)

Vanguard 1 Rocket - Pass Details

Date: 16 March 2018
Orbit: 653 x 4224 km, 34.3° (Epoch: 18 June)

Event Time Altitude Azimuth Distance (km) Brightness Sun altitude
Rises 17:42:34 0° 228° (SW) 3,187 11.4 22.3°
Reaches altitude 10° 17:44:39 10° 220° (SW) 2,434 10.8 21.9°
Maximum altitude 17:49:57 44° 149° (SSE) 1,521 8.7 20.9°
Drops below altitude 10° 17:59:03 10° 82° (E) 4,162 10.2 19.1°
Sets 18:03:48 0° 77° (ENE) 5,764 10.9 18.2°
